[[{"header":{"parameterUnit":"m.s-1","parameterCategory":1,"la1":30.2991,"la2":30.254,"lo1":-89.0895,"lo2":-89.0444,"dy":0.0017,"dx":0.0017,"nx":28,"ny":28,"refTime":"2024-03-22T09:00:00:Z","depth":0,"parameterNumber":2,"parameterNumberName":"U-component_of_WINDS"},"data":[0,0,0,0,0,0,0,0,0,0,0,0,0,0,0,0,0,0,0,0,0,0,0,0,0,0,0,0,0,0,0,0,0,0,0,0,0,0,0,0,0,0,0,0,0,0,0,0,0,0,0,0,0,0,0,0,0,0,2.4012,2.4012,0,2.406,2.4061,2.4062,2.4063,2.4062,2.4061,2.4061,2.4111,2.4113,2.4115,0,0,0,0,0,0,0,0,0,0,0,0,0,2.3923,2.3924,2.4012,2.4012,2.4013,2.406,2.4061,2.4062,2.4063,2.4062,2.4061,2.4061,2.4111,2.4113,2.4115,0,0,0,0,0,0,0,0,0,0,0,0,0,2.3965,2.3925,2.4012,2.4019,2.402,2.406,2.4061,2.4062,2.4063,2.4062,2.4061,2.406,2.411,2.4113,2.4116,2.4151,0,0,2.4124,2.4126,0,0,0,0,0,0,0,0,2.3963,2.3969,2.4017,2.4019,2.402,2.4055,2.4048,2.4092,2.4063,2.4047,2.4061,2.406,2.4093,2.4097,2.4109,2.4154,2.4156,2.4125,2.4126,2.4128,2.4128,0,0,0,0,0,0,0,2.396,2.3967,2.4031,2.4018,2.402,2.4021,2.4026,2.4056,2.4075,2.4048,2.4048,2.4054,2.4094,2.4106,2.411,2.4157,2.4125,2.4127,2.4129,2.413,2.4237,2.4238,0,0,0,0,0,0,2.3955,2.3964,2.4029,2.4032,2.3989,2.4023,2.4029,2.4044,2.4074,2.4078,2.4055,2.4054,2.4101,2.4106,2.4112,2.4157,2.4128,2.413,2.4132,2.4236,2.4237,2.4239,0,0,0,0,0,0,2.3953,2.3961,2.4028,2.3998,2.4007,2.4026,2.4043,2.4046,2.4058,2.4079,2.4083,2.4063,2.4101,2.4108,2.4142,2.4159,2.4132,2.4134,2.4235,2.4236,2.4238,2.4248,0,0,0,0,0,0,2.3951,2.396,2.3973,2.3999,2.4008,2.4056,2.4044,2.4047,2.4063,2.4062,2.4088,2.4092,2.4101,2.4138,2.4145,2.4162,2.4136,2.4233,2.4235,2.4237,2.4246,2.425,2.4253,0,0,0,0,0,2.3948,2.3974,2.3974,2.3982,2.4025,2.4057,2.4063,2.4072,2.4064,2.4078,2.4092,2.4091,2.4156,2.4141,2.4149,2.4168,2.4232,2.4235,2.4237,2.4245,2.4249,2.4253,0,0,0,0,0,0,2.3949,2.3977,2.3977,2.4012,2.4033,2.4057,2.4075,2.4076,2.4099,2.4098,2.4109,2.4115,2.415,2.4162,2.4146,2.4206,2.4193,2.4198,2.4196,2.4201,2.4204,2.42,2.4139,0,0,0,0,0,2.3954,2.3977,2.4,2.4029,2.4039,2.4055,2.407,2.4076,2.4097,2.4106,2.4122,2.4143,2.4169,2.4185,2.421,2.4248,2.4255,2.4265,2.4269,2.4271,2.4275,2.4299,2.4304,2.4247,2.4247,2.4247,0,0,2.3963,2.3981,2.3995,2.403,2.4046,2.4071,2.4062,2.4089,2.4108,2.411,2.4144,2.4157,2.4182,2.4219,2.4236,2.4231,2.4292,2.4275,2.4276,2.4279,2.4302,2.4307,2.4312,2.4249,2.4248,2.4248,0,0,2.3993,2.4008,2.4035,2.4052,2.4077,2.4088,2.4095,2.412,2.4129,2.4164,2.4166,2.419,2.4233,2.4251,2.4266,2.4307,2.4307,2.4314,2.4332,2.4355,2.4359,2.4363,2.4379,2.4385,2.4318,2.4318,2.4318,0,2.4001,2.4038,2.4048,2.4075,2.4092,2.4095,2.4123,2.414,2.4171,2.4183,2.4176,2.4233,2.4249,2.4292,2.4302,2.4314,2.4323,2.4311,2.4358,2.4362,2.4366,2.4381,2.4387,2.4319,2.4319,2.4319,2.4319,0,2.4048,2.4075,2.4093,2.4125,2.4143,2.417,2.4186,2.4204,2.4209,2.4221,2.4258,2.4279,2.4308,2.4319,2.4324,2.4364,2.436,2.4355,2.4343,2.4372,2.4387,2.4393,2.432,2.432,2.4319,2.4319,0,0,2.4079,2.4117,2.4124,2.414,2.4169,2.419,2.4219,2.4248,2.4264,2.4287,2.4312,2.435,2.4347,2.4365,2.4372,2.4392,2.4425,2.4385,2.4386,2.4393,2.4473,2.4476,2.4483,2.4426,2.4427,2.4428,2.4471,0,2.4113,2.4163,2.4175,2.4219,2.4244,2.4249,2.4275,2.4297,2.431,2.4334,2.4349,2.4376,2.4369,2.438,2.44,2.4417,2.4441,2.4414,2.4451,2.4452,2.4445,2.449,2.4494,2.4533,2.4477,2.4478,2.4479,0,2.4158,2.4183,2.423,2.4259,2.427,2.4292,2.4322,2.4345,2.437,2.4379,2.4399,2.4405,2.4437,2.4424,2.4469,2.445,2.4466,2.4477,2.4479,2.4483,2.4467,2.4497,2.4546,2.4552,2.4487,2.4487,2.4486,0,2.4178,2.4223,2.4257,2.427,2.4304,2.432,2.4335,2.436,2.4378,2.4404,2.4416,2.4446,2.4462,2.4486,2.45,2.4489,2.4545,2.4532,2.4554,2.4554,2.4566,2.4565,2.4619,2.4575,2.4575,2.4575,2.4575,0,2.4215,2.4243,2.4267,2.4288,2.4321,2.4335,2.4368,2.4383,2.4405,2.4431,2.4437,2.4461,2.4479,2.4505,2.4517,2.4554,2.4561,2.457,2.4573,2.457,2.4569,2.458,2.4578,2.4576,2.4576,2.4576,2.4576,0,2.4241,2.4258,2.4296,2.4326,2.4334,2.4357,2.4383,2.4405,2.4419,2.4452,2.446,2.4483,2.4515,2.4532,2.4572,2.458,2.4622,2.4623,2.4613,2.4615,2.4636,2.4634,2.47,2.4711,2.4659,2.466,2.466,0,2.4264,2.4286,2.4319,2.4337,2.4352,2.438,2.4399,2.4414,2.4434,2.4467,2.4485,2.4518,2.4545,2.4597,2.4617,2.4649,2.4651,2.4672,2.4656,2.4653,2.4653,2.4652,2.4655,2.4675,2.4675,2.4676,2.4676,0,2.4303,2.4311,2.4337,2.4368,2.4391,2.4415,2.444,2.4454,2.4474,2.4496,2.4529,2.455,2.4593,2.4626,2.4659,2.4676,2.468,2.4681,2.4688,2.4686,2.468,2.4685,2.4622,2.468,2.4679,2.4679,2.4679,2.4679,2.4329,2.435,2.4377,2.4408,2.4428,2.4452,2.4474,2.4492,2.452,2.4555,2.4563,2.4599,2.4627,2.4673,2.4691,2.472,2.4716,2.4726,2.4728,2.4731,2.4732,2.4675,2.4726,2.4726,2.4726,2.4726,2.4726,0,2.437,2.4388,2.4416,2.4451,2.4475,2.4477,2.4505,2.4526,2.4557,2.4583,2.461,2.465,2.4683,2.4707,2.4741,2.476,2.4763,2.4769,2.4768,2.4772,2.4733,2.4724,2.4766,2.4766,2.4766,2.4766,2.4766,2.4766,2.4394,2.443,2.4442,2.449,2.4508,2.4543,2.4559,2.4582,2.4602,2.4647,2.4674,2.469,2.4716,2.4752,2.4784,2.479,2.4803,2.4808,2.4815,2.4779,2.4774,2.477,2.4762,2.4811,2.4811,2.4852,2.4852,2.4852]},{"header":{"parameterUnit":"m.s-1","parameterCategory":1,"la1":30.2991,"la2":30.254,"lo1":-89.0895,"lo2":-89.0444,"dy":0.0017,"dx":0.0017,"nx":28,"ny":28,"refTime":"2024-03-22T09:00:00:Z","depth":0,"parameterNumber":3,"parameterNumberName":"V-component_of_WINDS"},"data":[0,0,0,0,0,0,0,0,0,0,0,0,0,0,0,0,0,0,0,0,0,0,0,0,0,0,0,0,0,0,0,0,0,0,0,0,0,0,0,0,0,0,0,0,0,0,0,0,0,0,0,0,0,0,0,0,0,0,-8.7904,-8.7905,0,-8.8006,-8.8008,-8.8009,-8.7991,-8.7989,-8.7988,-8.7986,-8.8083,-8.8087,-8.8091,0,0,0,0,0,0,0,0,0,0,0,0,0,-8.7686,-8.7691,-8.7903,-8.7905,-8.7906,-8.8006,-8.8008,-8.8009,-8.7991,-8.7989,-8.7987,-8.7985,-8.8081,-8.8086,-8.8091,0,0,0,0,0,0,0,0,0,0,0,0,0,-8.7784,-8.7692,-8.7903,-8.791,-8.7911,-8.8006,-8.8008,-8.8009,-8.7992,-8.7989,-8.7986,-8.7984,-8.808,-8.8086,-8.8092,-8.8185,0,0,-8.8112,-8.8114,0,0,0,0,0,0,0,0,-8.7778,-8.7792,-8.7907,-8.7909,-8.7911,-8.7983,-8.7967,-8.8068,-8.7993,-8.7961,-8.7986,-8.7983,-8.8051,-8.806,-8.8085,-8.8189,-8.8193,-8.8112,-8.8116,-8.8119,-8.812,0,0,0,0,0,0,0,-8.7772,-8.7787,-8.7944,-8.7909,-8.7911,-8.7905,-8.7916,-8.7986,-8.8019,-8.7963,-8.7962,-8.7975,-8.8052,-8.8079,-8.8087,-8.8195,-8.8112,-8.8118,-8.8121,-8.8124,-8.8383,-8.8386,0,0,0,0,0,0,-8.7764,-8.7782,-8.7941,-8.7947,-8.7837,-8.7912,-8.7924,-8.7963,-8.8019,-8.8025,-8.7978,-8.7974,-8.8069,-8.8079,-8.809,-8.8204,-8.8119,-8.8125,-8.8128,-8.838,-8.8384,-8.8387,0,0,0,0,0,0,-8.7759,-8.7778,-8.7936,-8.7864,-8.7884,-8.7918,-8.7962,-8.7966,-8.7993,-8.803,-8.8035,-8.7999,-8.8067,-8.8081,-8.8163,-8.8207,-8.8127,-8.8133,-8.8376,-8.8381,-8.8385,-8.8431,0,0,0,0,0,0,-8.7753,-8.7777,-8.7813,-8.7865,-8.7888,-8.8009,-8.7965,-8.797,-8.8005,-8.8002,-8.8051,-8.8057,-8.8066,-8.8153,-8.8169,-8.8214,-8.8138,-8.8372,-8.8379,-8.8384,-8.8426,-8.8437,-8.8446,0,0,0,0,0,-8.7746,-8.7819,-8.7815,-8.7834,-8.7935,-8.8011,-8.8024,-8.8036,-8.8009,-8.8045,-8.8069,-8.8055,-8.82,-8.8162,-8.8179,-8.8227,-8.837,-8.8377,-8.8383,-8.8421,-8.8434,-8.8446,0,0,0,0,0,0,-8.7767,-8.7826,-8.7822,-8.7915,-8.7959,-8.8008,-8.8054,-8.8049,-8.8099,-8.8094,-8.8104,-8.8115,-8.8199,-8.8221,-8.8177,-8.8321,-8.8281,-8.8291,-8.8303,-8.8316,-8.8326,-8.8319,-8.8143,0,0,0,0,0,-8.7784,-8.7843,-8.789,-8.7968,-8.7991,-8.8019,-8.8053,-8.8059,-8.8103,-8.8121,-8.815,-8.8192,-8.8247,-8.8283,-8.8335,-8.8429,-8.844,-8.8471,-8.8481,-8.849,-8.8498,-8.8552,-8.8566,-8.841,-8.841,-8.841,0,0,-8.7816,-8.7856,-8.7892,-8.7974,-8.8008,-8.8069,-8.8034,-8.8098,-8.8143,-8.8129,-8.8209,-8.8233,-8.828,-8.8369,-8.841,-8.839,-8.8545,-8.8498,-8.8505,-8.8509,-8.856,-8.8575,-8.8588,-8.8414,-8.8414,-8.8413,0,0,-8.7907,-8.7943,-8.8013,-8.805,-8.8105,-8.8124,-8.8141,-8.8192,-8.8209,-8.829,-8.8282,-8.8334,-8.8428,-8.8464,-8.8494,-8.8603,-8.8593,-8.862,-8.8672,-8.8724,-8.8737,-8.8748,-8.8788,-8.8802,-8.8629,-8.8629,-8.8629,0,-8.7939,-8.8033,-8.8049,-8.8116,-8.8152,-8.8148,-8.8219,-8.8252,-8.832,-8.8344,-8.8323,-8.8444,-8.8475,-8.8573,-8.8601,-8.8625,-8.8644,-8.8613,-8.8734,-8.8745,-8.8756,-8.8794,-8.8809,-8.8632,-8.8631,-8.8631,-8.8631,0,-8.8071,-8.8136,-8.8186,-8.8256,-8.8298,-8.8366,-8.8392,-8.8433,-8.8436,-8.8458,-8.8541,-8.858,-8.8641,-8.8665,-8.8667,-8.8764,-8.8751,-8.8732,-8.8691,-8.8773,-8.881,-8.8824,-8.8636,-8.8635,-8.8634,-8.8633,0,0,-8.8174,-8.8257,-8.8275,-8.8309,-8.8371,-8.842,-8.8489,-8.8553,-8.8588,-8.8636,-8.8693,-8.8776,-8.876,-8.8794,-8.8801,-8.8847,-8.8933,-8.8822,-8.8823,-8.8842,-8.9044,-8.9058,-8.9075,-8.8927,-8.893,-8.8932,-8.904,0,-8.8272,-8.8397,-8.8415,-8.8524,-8.8585,-8.8584,-8.8644,-8.8688,-8.8711,-8.8764,-8.8787,-8.8847,-8.8821,-8.8842,-8.8887,-8.8913,-8.8974,-8.8905,-8.898,-8.8982,-8.8968,-8.9093,-8.9108,-8.9208,-8.9054,-8.9057,-8.9058,0,-8.8401,-8.8458,-8.8574,-8.8632,-8.8658,-8.8712,-8.8774,-8.8826,-8.8876,-8.8889,-8.8931,-8.8933,-8.9003,-8.8961,-8.9059,-8.9012,-8.9044,-8.9061,-8.9066,-8.9072,-8.9025,-8.9103,-8.9239,-8.9255,-8.9081,-8.9079,-8.9077,0,-8.8466,-8.8571,-8.8655,-8.8684,-8.8752,-8.8791,-8.8821,-8.8869,-8.8908,-8.8961,-8.8986,-8.9046,-8.9079,-8.9124,-8.9142,-8.911,-8.9239,-8.9198,-8.9251,-8.9251,-8.9277,-8.9275,-8.942,-8.9298,-8.9298,-8.9298,-8.9298,0,-8.8572,-8.8644,-8.8686,-8.8738,-8.8818,-8.8839,-8.8917,-8.8946,-8.899,-8.9046,-8.9047,-8.9099,-8.9121,-8.9176,-8.919,-8.927,-8.9284,-8.9296,-8.9299,-8.9296,-8.9294,-8.9316,-8.9309,-8.9302,-8.9301,-8.93,-8.93,0,-8.8657,-8.8689,-8.8781,-8.8841,-8.8858,-8.8915,-8.8965,-8.9015,-8.9039,-8.911,-8.9128,-8.9165,-8.9231,-8.9254,-8.9333,-8.9343,-8.9435,-8.9432,-8.9419,-8.9419,-8.9472,-8.9466,-8.9635,-8.9659,-8.9521,-8.9522,-8.9524,0,-8.8723,-8.8779,-8.8847,-8.8887,-8.892,-8.8983,-8.9024,-8.9047,-8.909,-8.9154,-8.9196,-8.9263,-8.9317,-8.9422,-8.9454,-8.9515,-8.9514,-8.9569,-8.9522,-8.9519,-8.9515,-8.9512,-8.9518,-8.9577,-8.9578,-8.9579,-8.958,0,-8.8836,-8.8851,-8.8911,-8.8979,-8.9029,-8.9082,-8.9134,-8.9166,-8.9197,-8.9244,-8.9314,-8.9357,-8.944,-8.9506,-8.9569,-8.9598,-8.9594,-8.9595,-8.9611,-8.9608,-8.9599,-8.9605,-8.9443,-8.9591,-8.959,-8.9589,-8.9588,-8.9588,-8.8914,-8.8965,-8.9022,-8.9091,-8.9133,-8.9183,-8.9234,-8.9267,-8.9326,-8.9399,-8.9408,-8.9483,-8.9534,-8.962,-8.9652,-8.971,-8.9695,-8.9717,-8.9723,-8.9728,-8.9732,-8.9591,-8.9722,-8.9721,-8.9721,-8.9721,-8.9721,0,-8.9028,-8.9066,-8.913,-8.9205,-8.9259,-8.9256,-8.9313,-8.9358,-8.9426,-8.9475,-8.9531,-8.9612,-8.9677,-8.9717,-8.9782,-8.9821,-8.9821,-8.9837,-8.9834,-8.9841,-8.9742,-8.9722,-8.9837,-8.9837,-8.9837,-8.9837,-8.9836,-8.9836,-8.9094,-8.9181,-8.9202,-8.9311,-8.9348,-8.9425,-8.9458,-8.9504,-8.9544,-8.9636,-8.9692,-8.9719,-8.9765,-8.9835,-8.9894,-8.9904,-8.9928,-8.9946,-8.9954,-8.986,-8.9848,-8.9837,-8.9818,-8.9951,-8.9951,-9.0049,-9.005,-9.0051]}]]